Theta_e
319 318 320 317 317 318 323 323 335 338 348 348 345 343 342 339 337 337 337 337 336 335 335 338 342 343 343 344 344 344 343 343 342 341 340 340 340 341 341 346 349 350 348 351
324 321 318 318 324 320 337 335 343 343 349 341 342 339 340 338 336 336 334 333 332 332 333 334 334 336 338 340 342 343 343 343 342 340 340 339 338 339 341 341 341 344 348 350
324 320 321 321 318 324 323 341 343 347 342 341 341 339 338 336 333 333 332 331 331 330 330 331 330 330 331 333 336 337 337 338 339 339 338 336 336 336 336 338 340 340 341 344
323 322 326 324 317 328 342 341 340 340 342 341 339 335 335 332 329 329 327 327 328 328 324 322 322 322 322 324 324 325 327 331 332 332 332 333 329 329 330 332 333 337 337 338
322 324 325 323 318 318 331 340 339 341 340 337 332 329 328 327 325 323 321 321 323 322 320 319 319 320 320 319 319 319 318 320 321 322 325 325 324 323 322 325 328 331 337 342
316 321 329 326 321 321 329 327 339 338 337 332 333 336 329 323 320 318 319 321 319 318 318 318 317 317 317 316 316 316 317 317 317 318 319 320 320 321 323 325 330 336 336 334
316 318 318 318 320 320 323 321 337 336 334 332 333 328 318 320 317 316 318 318 317 315 315 316 316 316 314 314 313 314 314 315 315 316 316 317 318 318 319 321 324 323 319 318
312 315 318 317 319 321 317 322 333 329 328 324 321 319 318 316 315 315 314 314 314 314 312 312 313 314 310 309 310 312 313 313 313 314 314 315 316 316 316 316 316 316 316 315
317 315 314 315 316 315 314 322 325 325 323 322 320 319 319 318 315 313 311 312 312 312 311 311 311 310 308 307 308 309 309 309 309 310 311 312 312 312 312 313 313 312 312 312
318 318 318 315 315 315 317 319 320 320 321 321 319 318 318 315 312 311 310 310 310 309 308 307 307 307 306 306 306 305 305 305 305 305 305 306 307 307 308 307 307 307 307 307
315 317 316 315 314 313 317 318 319 319 319 319 317 317 316 313 311 310 310 309 309 308 307 306 306 306 305 305 305 305 304 302 301 302 302 302 302 302 303 304 304 304 303 302
317 313 313 313 312 312 315 317 318 318 318 317 316 315 314 313 312 310 309 309 308 308 307 306 306 305 304 304 304 303 301 301 301 301 301 300 300 300 299 299 300 300 300 301
313 313 311 312 311 312 311 313 315 315 316 315 315 314 313 311 309 309 310 309 309 308 308 307 306 304 304 302 301 301 300 300 300 299 298 297 297 296 296 296 296 295 295 296
313 313 314 312 313 311 311 311 313 313 313 312 311 310 309 309 309 309 309 309 308 307 307 306 305 304 303 301 300 300 299 298 298 297 296 296 296 295 295 295 295 294 294 294
311 312 311 310 311 311 312 310 311 311 310 309 309 309 309 309 308 309 309 309 308 307 306 306 304 304 303 299 299 299 298 297 296 296 295 295 294 294 294 294 293 293 294 294
311 311 311 312 311 311 312 308 308 308 309 308 309 308 310 311 310 310 309 309 307 306 306 305 304 303 303 301 299 298 297 297 296 296 295 294 294 294 293 293 293 293 293 292
311 312 311 310 310 312 311 310 311 310 309 309 309 309 308 309 309 308 309 309 308 308 307 305 304 304 304 303 302 299 298 297 297 297 296 296 295 295 294 294 293 293 292 292
309 309 310 308 308 310 313 313 312 311 311 311 311 310 309 307 307 308 308 308 307 307 307 307 305 304 304 303 303 302 300 298 297 297 297 297 297 297 296 296 295 294 294 293
309 309 310 310 309 309 311 312 313 313 313 313 313 312 310 309 309 308 307 306 306 306 308 307 306 305 304 304 303 303 302 301 299 298 298 298 298 298 298 297 297 296 295 293
310 310 311 311 311 310 310 312 313 312 313 313 313 313 311 310 310 308 308 308 308 308 308 308 307 306 305 304 304 303 303 302 301 299 298 298 299 299 299 299 298 298 297 296
310 311 311 312 312 312 311 310 310 310 310 310 311 310 312 313 313 312 311 309 312 312 310 309 308 307 306 305 305 304 304 303 302 301 300 299 299 299 300 299 299 299 298 297
310 310 311 312 312 312 312 312 312 311 310 310 310 310 310 310 309 309 310 311 311 311 311 310 311 309 309 306 305 305 305 304 303 302 301 300 300 300 300 300 300 299 299 298
310 312 312 312 311 311 311 311 311 311 310 309 308 308 308 309 309 308 307 310 310 310 310 310 308 307 308 307 305 305 305 305 303 302 302 301 300 300 300 300 300 299 300 299
311 311 311 311 310 309 309 309 307 306 305 305 305 305 306 307 307 307 307 308 307 307 308 309 309 308 307 307 306 306 306 305 305 304 304 303 302 301 301 301 301 301 300 300
310 310 310 310 308 308 308 307 305 305 305 306 306 306 306 306 306 306 307 307 307 307 307 307 308 309 307 307 306 306 306 306 306 305 305 305 304 303 302 301 302 302 301 301
308 309 310 310 309 307 306 305 304 305 305 305 305 306 306 306 307 306 306 307 307 307 307 307 307 308 307 307 306 307 305 306 307 305 306 306 305 304 303 302 302 303 302 301
307 307 306 305 306 306 305 304 304 305 305 306 305 305 305 306 307 306 306 307 307 307 307 306 307 307 307 307 306 307 307 307 306 306 305 304 304 303 303 303 302 302 301 300
Wind_Speed
2 4 3 3 5 5 3 5 6 8 10 17 17 13 11 11 10 9 7 6 5 6 9 12 15 19 17 16 17 14 13 13 11 9 11 11 9 8 8 5 4 9 13 10
2 3 7 3 14 10 3 2 4 8 2 8 11 9 12 13 12 12 11 8 8 10 13 14 14 18 17 12 8 9 8 8 10 8 6 3 5 4 4 6 8 6 4 6
2 6 5 6 9 5 5 1 4 6 7 12 15 14 14 13 12 12 12 12 9 11 16 16 16 20 22 21 19 19 17 14 13 12 10 8 7 5 6 6 4 7 8 8
1 4 2 5 2 4 3 5 4 3 11 14 14 8 9 10 11 11 11 12 12 16 20 21 22 25 28 29 28 26 23 18 17 14 12 9 12 10 7 7 8 8 8 9
2 2 4 2 2 4 4 4 2 8 13 13 15 16 9 11 10 10 10 16 16 19 22 25 27 27 28 28 26 25 24 21 18 16 14 12 15 12 11 8 5 9 11 11
3 4 5 4 1 3 1 5 4 5 14 18 15 7 5 11 12 13 15 21 21 25 28 27 24 25 27 25 25 22 19 18 16 16 15 13 11 9 9 13 12 15 20 19
1 2 5 5 10 4 3 5 5 11 9 11 5 3 7 12 13 14 16 26 22 18 24 25 21 20 23 21 20 16 16 16 16 16 18 16 16 15 13 14 16 19 19 18
2 2 2 7 6 3 3 5 2 5 7 9 11 13 13 13 12 16 18 19 23 25 21 18 16 16 19 18 13 12 12 14 15 15 16 14 15 16 15 15 17 17 17 17
6 5 4 4 4 4 3 3 1 5 6 10 15 14 14 12 11 13 19 20 19 21 18 15 13 11 17 14 11 12 13 15 14 14 14 13 14 15 16 15 15 15 15 15
2 3 4 4 4 4 1 3 7 9 10 12 14 14 12 12 9 12 16 21 23 22 20 17 14 13 14 12 10 13 17 17 15 15 15 14 13 13 14 15 15 14 14 14
3 5 4 4 5 4 2 9 12 8 10 12 15 12 11 10 14 13 16 19 18 19 18 16 14 14 13 13 10 14 16 16 16 17 17 17 17 16 15 14 14 14 14 14
5 3 2 4 5 4 4 5 11 15 9 11 17 14 19 13 16 17 19 18 16 15 15 14 12 12 12 11 10 13 15 15 15 15 16 16 16 14 15 14 11 10 9 10
2 3 3 6 5 1 2 3 7 8 16 15 16 20 21 17 18 21 20 18 19 17 15 14 12 12 12 11 12 13 14 12 13 13 15 15 16 16 16 15 15 15 15 13
3 2 1 3 3 7 3 2 5 10 14 17 18 17 18 20 22 24 24 21 20 19 18 16 14 14 12 12 12 13 14 12 12 13 14 15 15 15 15 16 16 18 18 18
5 2 3 3 5 7 1 8 6 6 12 13 20 23 25 21 21 25 21 20 18 17 17 18 18 18 15 12 12 13 13 13 13 13 13 14 14 15 16 16 16 17 20 21
3 2 1 2 4 5 2 5 7 5 4 9 18 22 29 30 28 26 23 23 24 23 21 20 22 20 19 16 13 12 11 11 11 11 12 12 12 13 13 14 15 17 17 16
4 2 2 3 3 3 1 3 9 7 11 8 7 9 15 21 22 24 26 27 27 23 23 22 23 22 20 19 16 14 12 11 9 8 8 8 9 10 11 12 14 15 16 17
4 2 2 4 4 3 1 3 11 18 17 14 8 9 11 11 18 27 31 31 29 23 23 23 21 23 22 22 20 16 13 11 9 7 5 4 4 6 8 10 12 14 17 19
6 5 1 0 5 5 7 7 10 14 17 13 11 4 8 19 23 19 18 20 22 22 29 25 23 24 25 24 22 19 16 13 10 9 6 3 1 2 5 7 10 13 17 19
6 5 3 2 4 7 8 8 8 8 11 12 12 12 16 15 13 14 17 22 26 32 29 25 27 29 29 27 25 23 21 18 15 11 10 9 7 5 6 8 10 13 16 19
8 8 7 6 7 9 10 7 8 11 11 12 15 19 24 27 25 22 22 20 30 33 31 29 29 32 34 33 30 29 26 24 21 19 16 14 13 12 12 11 12 13 14 16
11 11 12 10 9 6 4 5 6 5 6 8 11 14 13 16 18 21 26 28 33 32 34 37 38 40 41 38 35 35 31 30 28 25 22 20 18 17 17 16 16 16 16 16
14 13 11 8 9 5 4 2 2 4 8 9 9 11 14 17 15 14 14 20 23 25 28 30 35 38 41 40 37 37 35 33 32 29 26 24 22 21 20 20 20 19 19 18
8 8 7 8 8 7 5 5 4 3 5 8 10 10 11 12 16 17 18 19 19 18 20 22 26 31 36 34 38 39 35 40 34 31 28 25 23 23 22 21 21 22 22 21
11 8 10 11 11 10 8 6 5 6 8 8 9 9 9 10 12 15 13 11 13 15 17 21 25 28 33 33 37 40 30 35 35 32 28 25 25 24 23 21 21 22 22 22
13 13 14 16 14 10 8 6 4 2 4 6 5 6 9 9 9 8 8 9 10 12 15 17 21 21 26 31 35 35 30 29 34 29 25 25 25 26 25 24 24 24 23 23
10 9 10 9 10 11 10 7 6 2 3 4 6 6 7 8 4 5 6 4 5 6 5 10 12 16 23 26 20 21 23 23 26 21 19 19 21 22 23 22 22 21 22 22
Wind_Direction
238 286 138 49 7 316 204 174 149 187 184 189 178 162 143 132 131 128 118 96 109 104 89 96 137 147 175 189 181 180 160 136 135 99 82 72 68 62 47 6 291 266 253 258
293 241 75 44 14 5 53 91 63 132 72 131 132 135 139 140 136 130 123 115 110 96 93 89 95 108 120 126 139 172 182 185 182 238 243 13 40 29 28 38 32 11 324 274
240 327 54 23 352 323 289 159 143 157 196 146 144 155 154 138 130 129 126 118 107 97 94 89 90 100 96 96 108 106 109 123 138 146 127 99 83 67 65 59 35 24 15 357
156 15 115 217 39 283 80 9 356 54 139 141 136 117 128 127 124 124 120 114 109 97 93 90 90 90 93 94 93 93 91 90 96 105 104 98 72 67 64 62 47 58 44 38
122 39 307 54 46 355 359 317 342 138 128 127 121 103 94 119 119 120 116 106 105 107 103 100 99 100 97 91 90 86 83 86 88 90 94 88 73 59 52 44 55 61 63 63
137 128 201 208 122 343 202 316 179 141 147 144 143 143 146 126 120 112 114 119 121 118 115 106 102 103 96 87 87 81 79 84 83 80 78 81 81 78 66 71 70 95 93 89
57 167 292 303 319 293 122 246 166 154 144 159 148 133 126 123 113 115 126 123 127 114 111 114 113 106 97 93 86 89 89 87 85 83 83 85 84 87 91 93 91 87 83 73
68 79 268 341 343 16 260 323 179 133 147 120 121 117 117 117 119 125 115 113 123 117 112 108 106 106 101 90 93 97 96 90 86 84 85 85 89 84 82 81 77 71 67 61
173 219 246 280 245 281 232 248 314 121 121 129 133 126 135 134 131 130 119 122 126 118 105 92 90 91 96 95 103 108 103 93 90 89 84 81 80 76 72 66 62 52 49 40
60 288 320 334 334 341 359 117 95 107 125 141 126 130 130 120 120 119 129 132 136 127 119 111 107 104 101 103 104 102 97 92 88 86 81 78 75 66 61 54 54 49 39 31
300 296 326 349 17 354 48 104 97 96 126 135 132 139 140 132 128 133 139 141 144 133 126 120 117 109 105 103 112 100 94 87 83 83 80 78 73 69 71 63 52 46 36 27
212 226 173 259 334 18 307 139 136 130 131 145 150 141 137 135 150 154 153 150 142 134 131 129 123 115 115 122 120 112 100 92 85 81 78 76 78 79 71 76 72 64 52 36
194 207 225 280 281 6 3 237 164 150 155 150 157 153 153 152 160 161 160 160 161 160 156 151 148 143 137 130 127 116 107 97 89 82 75 71 67 61 55 60 56 48 45 43
242 292 226 16 307 315 291 136 184 156 154 155 147 152 150 146 155 165 173 175 168 165 164 163 159 157 150 142 135 123 115 108 101 91 83 76 69 64 55 45 35 28 30 25
256 240 235 272 327 331 252 141 140 168 150 146 158 154 157 160 170 182 180 177 176 174 173 173 171 168 163 150 144 134 128 120 111 103 93 83 74 66 58 51 40 28 20 19
139 151 26 351 337 346 311 144 125 137 171 155 160 170 179 183 185 187 184 182 180 190 191 186 183 178 174 166 155 147 137 130 124 116 108 96 83 71 59 47 36 26 18 9
143 217 226 273 284 324 344 139 126 125 118 128 178 176 187 185 191 194 197 199 203 204 199 196 195 189 187 183 176 166 158 154 145 134 120 101 81 65 54 43 32 23 16 12
203 188 173 209 204 206 150 78 121 133 125 114 117 192 198 203 200 204 207 208 211 214 211 208 202 199 197 196 194 187 179 173 172 169 152 132 84 54 38 28 20 13 6 4
192 184 202 285 213 194 199 193 177 156 154 150 157 129 209 230 228 227 220 212 216 222 225 218 211 210 208 205 203 203 200 197 196 198 200 197 218 356 358 359 359 358 357 356
184 194 199 166 164 200 223 229 221 219 214 211 215 199 191 190 196 209 214 218 230 233 234 229 220 219 220 213 211 211 210 212 215 219 223 230 242 268 298 319 327 333 340 345
204 210 220 228 228 219 219 215 211 219 222 220 220 218 217 227 226 218 208 216 243 246 238 235 237 229 230 221 210 217 216 217 219 224 228 236 247 257 271 283 295 306 315 323
210 217 221 223 229 246 228 222 238 257 240 235 248 258 261 259 253 244 237 229 246 244 240 236 233 236 231 228 216 219 219 221 224 226 229 236 243 252 261 270 279 290 297 307
206 214 223 208 184 188 183 191 214 246 268 274 266 264 257 263 267 252 257 260 257 258 256 255 248 236 230 217 215 223 228 226 226 229 233 239 247 255 264 272 279 284 291 296
206 183 175 178 170 174 177 207 239 271 298 306 305 301 288 283 281 276 274 269 268 268 262 262 256 245 227 213 212 215 223 234 233 235 240 247 254 263 269 278 285 286 285 286
189 176 169 169 188 204 213 218 240 293 311 318 318 314 307 297 283 295 285 277 274 272 272 264 259 256 225 210 209 217 215 237 238 240 245 252 258 266 270 278 284 285 283 279
178 188 194 202 210 210 200 196 241 277 321 330 338 343 346 333 329 322 299 283 289 287 277 269 265 247 220 211 211 207 202 222 238 242 252 260 262 266 273 278 283 281 283 281
186 190 193 200 209 195 186 193 192 212 271 302 311 332 357 8 27 32 10 295 300 316 325 286 239 220 211 209 203 207 224 233 239 243 250 258 264 271 279 282 283 282 285 281